Texas Center One Loft Race - Training Toss 20

Station: Johnson City TX - T Race

Distance: 38 Miles

Release: 04-Dec-2017 09:30

Weather Release: Mostly Cloudy Humid    Arrival: Mostly Cloudy Humid

Wind at Release: SSW @ 10-15     Wind at Arrival: S @ 10-15

Temp at Release: 72°    Temp at Arrival: 74°

Lofts: 45

Birds: 75

Clocked: 73

Good Luck to Everyone!
Drops Pos Breeder Pigeon Name Color Sex Ent Arrival Speed To Win Eligible
1 Flyhome Loft - CA 26374-AU17-ARPU BB H 1 10:35:17.94 1024.212 00:00:00 Yes
2 Protege Loft - PA 0089-AU17-PROT BC H 1 10:35:20.14 1023.637 00:00:02 Yes
3 Welt Loft - TX 10458-MX17-ACEJ BB H 1 10:35:22.31 1023.071 00:00:04 Yes
4 Protege Loft - PA 0104-AU17-PROT BBWF H 2 10:35:24.78 1022.427 00:00:07 Yes
5 Dekeratry Loft - TX 7479-AU17-HOT BB H 1 10:35:31.88 1020.580 00:00:14 Yes
6 Daehn/Miele - FL 3822-AU17-FOYS Rw X 257 DC H 1 10:35:33.30 1020.212 00:00:15 Yes
7 Protege Loft - PA 0106-AU17-PROT BB H 3 10:35:42.22 1017.904 00:00:24 Yes
8 Clear Springs Loft - FL 17084-AU17-WARD BCWF C 1 10:35:49.12 1016.125 00:00:31 Yes
9 Flyhome Loft - CA 26373-AU17-ARPU BB H 2 10:35:52.33 1015.300 00:00:34 Yes
10 Arundus Loft - TX 14380-AU17-ARPU BCWF C 1 10:35:54.69 1014.694 00:00:37 Yes
11 A P C Loft - TX 17364-AU17-APCL BB H 1 10:35:56.08 1014.337 00:00:38 Yes
12 Lyons Loft - TX 1211-AU17-TXHC BB C 1 10:35:57.31 1014.022 00:00:39 Yes
13 Barbara Ann Loft - TX 1020-AU17-TXHC BB H 1 10:35:59.79 1013.387 00:00:42 Yes
14 Si Se Puede Loft - TX 32247-AU17-AA BBWF H 1 10:36:11.85 1010.310 00:00:54 Yes
15 Q-Ba Family Loft - TX 0376-AU17-SAIN BB C 1 10:36:11.99 1010.274 00:00:54 Yes
16 Nanez Family Lofts - WI 4711-AU17-NANE BBWF H 1 10:36:17.73 1008.817 00:01:00 Yes
17 Si Se Puede Loft - TX 32233-AU17-AA BC H 2 10:36:18.06 1008.733 00:01:00 Yes
18 Muenster Loft - TX 0011-AU17-SAL BB H 1 10:36:20.00 1008.241 00:01:02 Yes
19 Texstar Loft - TX 1772-AU17-TEXS BCWF H 1 10:36:21.47 1007.869 00:01:04 Yes
20 James Hazek - OH 4013-IF17-IHC BC H 1 10:36:24.63 1007.070 00:01:07 Yes
21 Lyons Loft - TX 1213-AU17-TXHC BB H 2 10:36:29.14 1005.931 00:01:11 Yes
22 Horn Lofts - TX 17020-AU17-HORN GRZ H 1 10:36:29.66 1005.800 00:01:12 Yes
23 Palomar Loft - TX 1706-AU17-TEXA BCWF H 1 10:36:32.31 1005.132 00:01:14 Yes
24 Palomar Loft - TX 1713-AU17-TEXA BB H 2 10:36:38.45 1003.589 00:01:21 Yes
25 Shieh Family Loft - TX 17636-AU17-WIN BB H 1 10:36:40.19 1003.152 00:01:22 Yes
26 Dekeratry Loft - TX 7503-AU17-HOT BB H 2 10:36:44.47 1002.080 00:01:27 Yes
27 Sad - TX 0399-AU17-TXHC BB H 1 10:36:44.61 1002.045 00:01:27 Yes
28 Muenster Loft - TX 1800-AU17-SAF BB H 2 10:36:48.55 1001.060 00:01:31 Yes
29 Shieh Family Loft - TX 17633-AU17-WIN BC H 2 10:36:49.99 1000.701 00:01:32 Yes
30 T T N Loft - MN 0747-AU17-TTN BB H 1 10:36:54.65 999.539 00:01:37 Yes
31 Daehn/Miele - FL 3821-AU17-FOYS Rw X 257 DCWF H 2 10:37:00.71 998.033 00:01:43 Yes
32 Jonas Racing - TX 0669-AU17-SAL BBWF H 1 10:37:01.77 997.770 00:01:44 Yes
33 Barbara Ann Loft - TX 1033-AU17-TXHC GRZ H 2 10:37:03.38 997.370 00:01:45 Yes
34 Morningside Racing Loft - TX 91090-AU17-MSRL BB C 1 10:37:05.91 996.744 00:01:48 Yes
35 Ed Minvielle - LA 17473-AU17-A BBWF H 1 10:37:09.96 995.742 00:01:52 Yes
36 Texstar Loft - TX 1770-AU17-TEXS BCWF H 2 10:37:13.27 994.925 00:01:55 Yes
37 Horn Lofts - TX 17025-AU17-HORN BC C 2 10:37:14.24 994.685 00:01:56 Yes
38 Medina Loft - TX 0193-AU17-JJME BC C 1 10:37:14.60 994.597 00:01:57 Yes
39 Lyons Loft - TX 1214-AU17-TXHC BB C 3 10:37:17.47 993.890 00:02:00 Yes
40 Q-Ba Family Loft - TX 0422-AU17-SAIN BCWF C 2 10:37:18.94 993.528 00:02:01 Yes
41 Daehn/Miele - FL 0250-AU17-NWFI 973 X 424 BB H 3 10:37:19.68 993.346 00:02:02 Yes
42 Kin Yung Loft - TX 1787-AU17-KHY BBSP C 1 10:37:22.29 992.705 00:02:04 Missing
43 Tex-Mex Loft - TX 0683-AU17-NSL Dutch BB H 1 10:40:29.07 948.861 00:05:11 Yes
44 Zapopan-Palomar-Ayon Loft - TX 0882-AU17-SAL BBSP H 1 10:40:32.80 948.025 00:05:15 Yes
45 Sterling Loft - TX 34871-AU17-AA BBWF H 1 10:41:34.02 934.509 00:06:16 Yes
46 Ledet-Gutrz - LA 17250-AU17-LEGU BB H 1 10:41:50.37 930.964 00:06:32 Yes
47 R & S Loft Of Tx - TX 0846-AU17-RSLF BBWF H 1 10:41:50.84 930.863 00:06:33 Yes
48 Crazy Als Lofts - CO 5098-AU17-CRAZ BB H 1 10:41:51.25 930.774 00:06:33 Yes
49 J & J Loft Of Tx - TX 0209-AU17-WACO African Heat 2 BB H 1 10:41:54.52 930.069 00:06:37 Yes
50 Schmueckle Loft - TX 0175-AU17-SAL BB H 1 10:41:57.32 929.466 00:06:39 Yes
51 Barbara Ann Loft - TX 1021-AU17-TXHC BB H 3 10:54:28.61 791.696 00:19:11 Yes
52 Quest Syndicate - TX 16108-AU17-QUES BBWF H 1 10:54:33.67 790.907 00:19:16 Yes
53 Twins Loft - TX 5971-AU17-AA BC H 1 10:54:36.29 790.499 00:19:18 Yes
54 Sbtx Racing Pigeon Loft - TX 0333-AU17-SBTX BC H 1 10:54:37.44 790.320 00:19:19 Yes
55 Dakota Loft Syndicate - MN 0836-AU17-DAKO BC C 1 10:54:38.68 790.127 00:19:21 Yes
56 Dakota Loft Syndicate - MN 0806-AU17-DAKO DC H 2 10:54:50.83 788.241 00:19:33 Yes
57 J & S Loft - TX 17997-AU17-WIN BB C 1 11:05:23.51 701.108 00:30:06 Yes
58 Kin Yung Loft - TX 1783-AU17-KHY BBWF H 2 11:09:43.82 670.608 00:34:26 Yes
59 Si Se Puede Loft - TX 32252-AU17-AA BBWF C 3 11:12:08.74 654.751 00:36:51 Missing
60 Norman Benoit - KS 0319-AU17-TEXA BB H 1 11:12:08.79 654.746 00:36:51 Missing
61 Protege Loft - PA 0092-AU17-PROT BB H 4 11:12:10.40 654.574 00:36:52 Yes
62 Morningside Racing Loft - TX 91094-AU17-MSRL BB H 2 11:12:12.00 654.403 00:36:54 Yes
63 Southern Legacy Loft - TX 0482-AU17-SLL BBWF H 1 11:12:14.35 654.152 00:36:56 Yes
64 Twins Loft - TX 5987-AU17-AA BB C 2 11:12:32.93 652.177 00:37:15 Yes
65 Twins Loft - TX 5972-AU17-AA BCSP H 3 11:17:19.28 623.175 00:42:01 Yes
66 Sofija Loft - IL 0099-AU17-BEKO BB H 1 11:17:20.90 623.019 00:42:03 Yes
67 Barbara Ann Loft - TX 1039-AU17-TXHC BB H 4 11:18:31.33 616.280 00:43:13 Yes
68 Texas Trio 2 - TX 1036-AU17-VPR BCWF H 1 11:33:56.54 539.606 00:58:39 Yes
69 James Hazek - OH 4022-IF17-IHC BBWF H 2 11:54:37.88 462.417 01:19:20 Yes
70 Schmueckle Loft - TX 0192-AU17-SAL DCSP C 2 11:59:54.64 446.132 01:24:37 Yes
71 Nanez Family Lofts - WI 4487-AU17-NANE BBWF C 2 15:54:45.22 173.826 05:19:27 Yes
72 Southern Legacy Loft - TX 2244-AU17-GJOJ BB H 2 2017-12-05 10:20:42.65 93.315 10:51:25 Missing
73 Dekeratry Loft - TX 7481-AU17-HOT BB H 3 2017-12-05 10:42:59.60 90.501 11:13:42 Yes

There are 69 bird records

Note: These Race Results are unofficial and subject to change until verified by the Race Committee and declared final.

 

Ship Birds to:
Bill Miller
30704 Starlight Drive
Bulverde TX 78163
210-771-2947